Meteo pe oră la Almancil

Astăzi, 17 Ianuarie, Duminică

Timp Temperatura Precipitaţii Vânt Presiune Umiditate
00:00 +7°C° 0 mm 3 m/s 766 mmHg 75%
01:00 +7°C° 0 mm 3 m/s 766 mmHg 73%
02:00 +7°C° 0 mm 3 m/s 766 mmHg 70%
03:00 +7°C° 0 mm 3 m/s 766 mmHg 69%
04:00 +7°C° 0 mm 2 m/s 766 mmHg 68%
05:00 +7°C° 0 mm 2 m/s 766 mmHg 67%
06:00 +8°C° 0 mm 2 m/s 766 mmHg 65%
07:00 +8°C° 0 mm 3 m/s 766 mmHg 62%
08:00 +9°C° 0 mm 3 m/s 767 mmHg 60%
09:00 +12°C° 0 mm 3 m/s 767 mmHg 52%
10:00 +14°C° 0 mm 3 m/s 767 mmHg 45%
11:00 +17°C° 0 mm 3 m/s 767 mmHg 37%
12:00 +17°C° 0 mm 2 m/s 766 mmHg 38%
13:00 +18°C° 0 mm 2 m/s 766 mmHg 39%
14:00 +18°C° 0 mm 2 m/s 765 mmHg 41%
15:00 +16°C° 0 mm 2 m/s 765 mmHg 50%
16:00 +13°C° 0 mm 1 m/s 765 mmHg 60%
17:00 +11°C° 0 mm 1 m/s 765 mmHg 70%
18:00 +10°C° 0 mm 1 m/s 765 mmHg 70%
19:00 +10°C° 0 mm 1 m/s 765 mmHg 70%
20:00 +9°C° 0 mm 1 m/s 765 mmHg 70%
21:00 +8°C° 0 mm 2 m/s 765 mmHg 69%
22:00 +8°C° 0 mm 2 m/s 765 mmHg 67%
23:00 +8°C° 0 mm 2 m/s 766 mmHg 66%

Mâine, 18 Ianuarie, Luni

Timp Temperatura Precipitaţii Vânt Presiune Umiditate
00:00 +8°C° 0 mm 2 m/s 765 mmHg 65%
01:00 +9°C° 0 mm 1 m/s 765 mmHg 64%
02:00 +8°C° 0 mm 1 m/s 764 mmHg 63%
03:00 +8°C° 0 mm 1 m/s 764 mmHg 61%
04:00 +8°C° 0 mm 1 m/s 764 mmHg 60%
05:00 +8°C° 0 mm 1 m/s 764 mmHg 58%
06:00 +8°C° 0 mm 2 m/s 764 mmHg 59%
07:00 +9°C° 0 mm 2 m/s 764 mmHg 60%
08:00 +9°C° 0 mm 2 m/s 765 mmHg 61%
09:00 +12°C° 0 mm 2 m/s 765 mmHg 58%
10:00 +14°C° 0 mm 2 m/s 765 mmHg 55%
11:00 +16°C° 0 mm 2 m/s 765 mmHg 52%
12:00 +16°C° 0 mm 2 m/s 765 mmHg 53%
13:00 +17°C° 0 mm 2 m/s 764 mmHg 53%
14:00 +17°C° 0 mm 2 m/s 763 mmHg 54%
15:00 +15°C° 0 mm 2 m/s 763 mmHg 64%
16:00 +12°C° 0 mm 2 m/s 763 mmHg 74%
17:00 +10°C° 0 mm 1 m/s 763 mmHg 84%
18:00 +10°C° 0 mm 1 m/s 764 mmHg 84%
19:00 +9°C° 0 mm 1 m/s 764 mmHg 84%
20:00 +9°C° 0 mm 1 m/s 764 mmHg 85%
21:00 +9°C° 0 mm 1 m/s 764 mmHg 84%
22:00 +9°C° 0 mm 1 m/s 764 mmHg 83%
23:00 +8°C° 0 mm 1 m/s 764 mmHg 82%

Poimâine, 19 Ianuarie, Marţi

Timp Temperatura Precipitaţii Vânt Presiune Umiditate
00:00 +8°C° 0 mm 1 m/s 764 mmHg 81%
01:00 +8°C° 0 mm 1 m/s 763 mmHg 81%
02:00 +8°C° 0 mm 1 m/s 763 mmHg 80%
03:00 +8°C° 0 mm 1 m/s 763 mmHg 83%
04:00 +8°C° 0 mm 1 m/s 763 mmHg 86%
05:00 +7°C° 0 mm 2 m/s 763 mmHg 89%
06:00 +8°C° 0 mm 2 m/s 763 mmHg 89%
07:00 +9°C° 0 mm 2 m/s 763 mmHg 89%
08:00 +10°C° 0 mm 2 m/s 763 mmHg 89%
09:00 +12°C° 0 mm 2 m/s 763 mmHg 84%
10:00 +13°C° 0 mm 3 m/s 763 mmHg 78%
11:00 +14°C° 0 mm 3 m/s 762 mmHg 72%
12:00 +14°C° 0 mm 4 m/s 762 mmHg 71%
13:00 +14°C° 0 mm 4 m/s 761 mmHg 71%
14:00 +14°C° 0 mm 5 m/s 761 mmHg 70%
15:00 +14°C° 0 mm 5 m/s 760 mmHg 74%
16:00 +13°C° 0 mm 5 m/s 760 mmHg 78%
17:00 +12°C° 0 mm 5 m/s 760 mmHg 82%
18:00 +12°C° 0 mm 5 m/s 760 mmHg 83%
19:00 +12°C° 0 mm 5 m/s 760 mmHg 84%
20:00 +11°C° 0 mm 6 m/s 760 mmHg 86%
21:00 +11°C° 0 mm 7 m/s 759 mmHg 85%
22:00 +11°C° 0 mm 7 m/s 759 mmHg 84%
23:00 +12°C° 0 mm 8 m/s 758 mmHg 83%

20 Ianuarie, Miercuri

Timp Temperatura Precipitaţii Vânt Presiune Umiditate
00:00 +12°C° 0.1 mm 9 m/s 757 mmHg 83%
01:00 +12°C° 0.1 mm 9 m/s 757 mmHg 84%
02:00 +12°C° 0.1 mm 10 m/s 756 mmHg 84%
03:00 +13°C° 0.4 mm 11 m/s 755 mmHg 86%
04:00 +13°C° 0.4 mm 11 m/s 755 mmHg 88%
05:00 +13°C° 0.4 mm 12 m/s 754 mmHg 91%
06:00 +13°C° 4.8 mm 11 m/s 754 mmHg 91%
07:00 +13°C° 4.8 mm 10 m/s 754 mmHg 91%
08:00 +13°C° 4.8 mm 8 m/s 754 mmHg 92%
09:00 +13°C° 0.2 mm 9 m/s 754 mmHg 87%
10:00 +15°C° 0.2 mm 9 m/s 755 mmHg 81%
11:00 +15°C° 0.2 mm 9 m/s 755 mmHg 76%
12:00 +15°C° 0.1 mm 9 m/s 755 mmHg 74%
13:00 +15°C° 0.1 mm 9 m/s 755 mmHg 72%
14:00 +16°C° 0.1 mm 9 m/s 755 mmHg 70%
15:00 +13°C° 0 mm 9 m/s 755 mmHg 75%
16:00 +12°C° 0 mm 8 m/s 755 mmHg 81%
17:00 +11°C° 0 mm 7 m/s 756 mmHg 86%
18:00 +11°C° 0 mm 6 m/s 756 mmHg 88%
19:00 +10°C° 0 mm 6 m/s 757 mmHg 90%
20:00 +10°C° 0 mm 5 m/s 758 mmHg 92%
21:00 +10°C° 0 mm 5 m/s 758 mmHg 92%
22:00 +10°C° 0 mm 5 m/s 758 mmHg 93%
23:00 +10°C° 0 mm 5 m/s 758 mmHg 93%

21 Ianuarie, Joi

Timp Temperatura Precipitaţii Vânt Presiune Umiditate
00:00 +10°C° 0 mm 5 m/s 758 mmHg 93%
01:00 +10°C° 0 mm 5 m/s 759 mmHg 93%
02:00 +10°C° 0 mm 5 m/s 759 mmHg 94%
03:00 +10°C° 0 mm 4 m/s 759 mmHg 94%
04:00 +10°C° 0 mm 4 m/s 759 mmHg 94%
05:00 +10°C° 0 mm 4 m/s 759 mmHg 94%
06:00 +10°C° 0.1 mm 5 m/s 759 mmHg 93%
07:00 +12°C° 0.1 mm 5 m/s 759 mmHg 92%
08:00 +11°C° 0.1 mm 6 m/s 759 mmHg 90%
09:00 +14°C° 0 mm 6 m/s 759 mmHg 86%
10:00 +15°C° 0 mm 7 m/s 759 mmHg 82%
11:00 +16°C° 0 mm 8 m/s 759 mmHg 77%
12:00 +16°C° 0.1 mm 8 m/s 759 mmHg 80%
13:00 +16°C° 0.1 mm 8 m/s 759 mmHg 83%
14:00 +16°C° 0.1 mm 9 m/s 758 mmHg 86%
15:00 +16°C° 0.6 mm 9 m/s 758 mmHg 89%
16:00 +16°C° 0.6 mm 9 m/s 758 mmHg 92%
17:00 +16°C° 0.6 mm 9 m/s 758 mmHg 95%
18:00 +15°C° 0.1 mm 8 m/s 759 mmHg 95%
19:00 +14°C° 0.1 mm 6 m/s 759 mmHg 96%
20:00 +14°C° 0.1 mm 5 m/s 760 mmHg 96%
21:00 +13°C° 0 mm 5 m/s 760 mmHg 96%
22:00 +13°C° 0 mm 5 m/s 760 mmHg 97%
23:00 +12°C° 0 mm 5 m/s 760 mmHg 97%

22 Ianuarie, Vineri

Timp Temperatura Precipitaţii Vânt Presiune Umiditate
00:00 +12°C° 0 mm 5 m/s 760 mmHg 97%
01:00 +12°C° 0 mm 4 m/s 760 mmHg 97%
02:00 +12°C° 0 mm 4 m/s 760 mmHg 97%
03:00 +12°C° 0 mm 4 m/s 760 mmHg 97%
04:00 +12°C° 0 mm 4 m/s 761 mmHg 97%
05:00 +12°C° 0 mm 4 m/s 761 mmHg 97%
06:00 +12°C° 0 mm 4 m/s 761 mmHg 96%
07:00 +12°C° 0 mm 4 m/s 762 mmHg 95%
08:00 +13°C° 0 mm 4 m/s 762 mmHg 95%
09:00 +14°C° 0 mm 5 m/s 763 mmHg 88%
10:00 +15°C° 0 mm 6 m/s 763 mmHg 81%
11:00 +17°C° 0 mm 6 m/s 763 mmHg 75%
12:00 +16°C° 0 mm 7 m/s 763 mmHg 72%
13:00 +16°C° 0 mm 7 m/s 763 mmHg 69%
14:00 +16°C° 0 mm 7 m/s 763 mmHg 67%
15:00 +15°C° 0 mm 6 m/s 763 mmHg 73%
16:00 +13°C° 0 mm 5 m/s 763 mmHg 79%
17:00 +11°C° 0 mm 4 m/s 763 mmHg 86%
18:00 +11°C° 0 mm 4 m/s 764 mmHg 88%
19:00 +10°C° 0 mm 3 m/s 764 mmHg 91%
20:00 +9°C° 0 mm 2 m/s 765 mmHg 93%
21:00 +9°C° 0 mm 2 m/s 765 mmHg 93%
22:00 +9°C° 0 mm 2 m/s 765 mmHg 93%
23:00 +9°C° 0 mm 1 m/s 765 mmHg 93%
Arată mai mult

Formular de consimțământ

Meteoprog și furnizorii noștri de servicii pot stoca și accesa date personale, precum cookies, identificatori de dispozitiv sau alte tehnologii similare pe dispozitivul dumneavoastră și procesa astfel de date pentru a personaliza conținutul și reclamele, dar și pentru a oferi caracteristici de social media și pentru a analiza traficul.

  • Stocarea și/sau accesarea informațiilor pe dispozitivul dumneavoastră

    Cookies, identificatori de dispozitiv sau alte informații pot fi stocate sau accesate pe dispozitiv în scopurile indicate mai sus.

  • Reclame și conținut personalizat, evaluarea reclamelor și a conținutului, informații despre audiențe și dezvoltarea produselor

    Reclamele și conținutul pot fi personalizate pe baza unui profil. Pot fi adăugate date suplimentare pentru a personaliza mai bine reclamele și conținutul. Performanța reclamelor și conținutului poate fi măsurată. Pot fi obținute informații despre utilizatorii care au văzut reclamele și conținutul. Aceste date pot fi utilizate pentru a dezvolta sau îmbunătăți experiența utilizatorilor, sistemele și software-ul.

Dând clic pe ‘Sunt de acord’, permiteți utilizarea cookie-urilor menționate, a identificatorilor de dispozitiv, balizelor web sau altor tehnologii similare. Setările pot fi modificate din browser-ul dispozitivului dumneavoastră.

În anumite scopuri, interesele legitime pot prima asupra consimțământului. Puteți citi mai multe informații în acest sens în Politica privind Confidențialitatea Datelor și Cookie.